Home > Weather > Aktau > Past weeks

Flag for Kazakhstan Past Weather in Aktau, Kazakhstan — Yesterday and Last 2 Weeks

Now
77 °F

Sunny.


Feels Like: 79 °F
Forecast: 72 / 91 °F
Wind: 6 mph from West

Location: Aktau

Current Time: Jun 27, 2016 at 11:32:35 PM

Latest Report: Jun 27, 2016 at 11:00 PM


Visibility: 10 mi

Pressure: 29.83 "Hg

Humidity: 65%

Dew Point: 64 °F

Location of AktauLocation

Past Weather in Aktau — Graph

°F

Aktau Temperature Yesterday

Maximum temperature yesterday: 88 °F (at 10:30 AM)
Minimum temperature yesterday: 72 °F (at 2:30 AM)
Average temperature yesterday: 80 °F

High & Low Weather Summary for the Past Weeks

 TemperatureHumidityPressure
High100 °F (Jun 19, 12:30 PM)78% (Jun 25, 6:00 AM)30.12 "Hg (Jun 25, 6:00 AM)
Low57 °F (Jun 13, 3:00 AM)7% (Jun 20, 1:00 PM)29.77 "Hg (Jun 16, 2:30 AM)
Average81 °F35%29.97 "Hg
* Reported Jun 12 10:00 PM — Jun 27 10:30 PM, Aktau, Weather by CustomWeather, © 2016

Note: Actual official high and low records may vary slightly from our data, if they occured in-between our weather recording intervals... More about our weather records

Advertising

Aktau Weather History for the Previous 24 Hours

Scroll right to see more
 ConditionsComfort  
Time TempWeatherWind HumidityBarometerVisibility
10:30 PM
Mon, Jun 27
79 °FSunny.8 mph61%29.83 "Hg10 mi
10:00 PM79 °FSunny.8 mph61%29.83 "Hg10 mi
9:30 PM79 °FSunny.3 mph61%29.83 "Hg10 mi
9:00 PM79 °FSunny.6 mph58%29.83 "Hg10 mi
8:30 PM81 °FScattered clouds.6 mph54%29.83 "HgN/A
8:00 PM82 °FBroken clouds.6 mph48%29.83 "HgN/A
7:30 PM81 °FBroken clouds.6 mph51%29.86 "HgN/A
7:00 PM82 °FBroken clouds.8 mph51%29.86 "HgN/A
6:30 PM82 °FBroken clouds.8 mph55%29.86 "HgN/A
6:00 PM84 °FThundershowers. Broken clouds.13 mph48%29.86 "HgN/A
5:30 PM84 °FThundershowers. Scattered clouds.15 mph43%29.86 "HgN/A
5:00 PM86 °FThundershowers. Scattered clouds.15 mph43%29.86 "HgN/A
4:30 PM86 °FScattered clouds.15 mph40%29.86 "HgN/A
4:00 PM86 °FScattered clouds.22 mph40%29.86 "HgN/A
3:00 PM86 °FBroken clouds.15 mph43%29.89 "HgN/A
2:30 PM86 °FBroken clouds.15 mph46%29.89 "HgN/A
2:00 PM84 °FBroken clouds.13 mph48%29.89 "HgN/A
1:30 PM86 °FBroken clouds.13 mph49%29.89 "HgN/A
1:00 PM82 °FBroken clouds.13 mph55%29.89 "HgN/A
12:30 PM84 °FScattered clouds.13 mph51%29.89 "HgN/A
12:00 PM86 °FScattered clouds.10 mph52%29.92 "HgN/A
11:30 AM86 °FScattered clouds.10 mph49%29.92 "HgN/A
11:00 AM84 °FScattered clouds.8 mph51%29.92 "HgN/A
10:30 AM84 °FScattered clouds.8 mph51%29.92 "HgN/A
10:00 AM82 °FScattered clouds.8 mph55%29.92 "HgN/A
9:30 AM82 °FPassing clouds.6 mph55%29.92 "HgN/A
9:00 AM82 °FSunny.6 mph48%29.92 "Hg10 mi
8:30 AM82 °FSunny.3 mph40%29.92 "Hg10 mi
8:00 AM79 °FSunny.1 mph42%29.92 "Hg10 mi
7:30 AM75 °FClear.No wind50%29.92 "Hg10 mi
7:00 AM72 °FClear.No wind53%29.92 "Hg10 mi
6:30 AM66 °FClear.No wind64%29.92 "Hg10 mi
6:00 AM66 °FClear.No wind64%29.92 "Hg10 mi
5:30 AM68 °FClear.6 mph60%29.92 "Hg10 mi
5:00 AM70 °FClear.3 mph57%29.92 "Hg10 mi
4:30 AM68 °FClear.6 mph60%29.92 "Hg10 mi
4:00 AM68 °FClear.3 mph60%29.92 "Hg10 mi
3:30 AM68 °FClear.3 mph60%29.92 "Hg10 mi
3:00 AM70 °FClear.6 mph57%29.92 "Hg10 mi
2:30 AM70 °FClear.3 mph57%29.92 "Hg10 mi
2:00 AM72 °FClear.6 mph53%29.95 "Hg10 mi
1:30 AM72 °FClear.8 mph53%29.95 "Hg10 mi
1:00 AM72 °FClear.6 mph53%29.95 "Hg10 mi
12:30 AM72 °FClear.6 mph53%29.95 "Hg10 mi
12:00 AM73 °FClear.6 mph50%29.95 "Hg10 mi
11:30 PM
Sun, Jun 26
75 °FClear.6 mph47%29.95 "Hg10 mi
11:00 PM75 °FSunny.6 mph54%29.95 "Hg10 mi
Weather by CustomWeather, © 2016

See weather overviewHow to use our weather pages